Regional Weather Roundup
Issued by NWS

Home | Current Version | Previous Version | Text Only | Print | Product List | Glossary Off
Versions: 1 2 3 4 5 6 7 8 9 10 11 12 13 14 15 16 17 18 19 20 21 22 23 24 25 26 27 28 29 30 31 32 33 34 35 36 37 38 39 40 41 42 43 44 45 46 47 48 49 50

000
ASUS45 KTFX 301210
RWRMT
MONTANA REGIONAL WEATHER ROUNDUP
NATIONAL WEATHER SERVICE GREAT FALLS MT
600 AM MDT TUE AUG 30 2016

NOTE: "FAIR" INDICATES FEW OR NO CLOUDS BELOW 12000 FEET WITH NO
SIGNIFICANT WEATHER AND/OR OBSTRUCTIONS TO VISIBILITY.

MTZ001>007-043-301300-
WEST OF THE DIVIDE

CITY           SKY/WX    TMP DP  RH WIND       PRES   REMARKS
KALISPELL      CLEAR     56  47  71 N10       30.07R
MISSOULA       MOCLDY    55  40  56 CALM      30.10F
BUTTE          PTCLDY    46  31  55 SE5       30.25R
MULLAN PASS    PTCLDY    64  34  32 SE8       30.21S
DEER LODGE       N/A     48  36  61 CALM      30.22R
EUREKA           N/A     48  46  93 E5        30.08S
HAMILTON         N/A     61  37  41 E5        30.11S
LIBBY            N/A     52  45  76 CALM      30.07R
PLAINS           N/A     51  42  71 CALM      30.05F
RONAN            N/A     53  46  77 CALM      30.11S
THOMPSON FALLS   N/A     52  45  77 MISG      30.08S
$$

MTZ008-052>055-301300-
SOUTHWEST MONTANA

CITY           SKY/WX    TMP DP  RH WIND       PRES   REMARKS
BOZEMAN        CLEAR     53  43  68 W5        30.18R
DILLON         PTCLDY    55  30  38 S8        30.21S
W YELLOWSTONE  CLOUDY    32  21  64 CALM      30.38S
ENNIS          CLOUDY    55  27  33 N6        30.28R
THREE FORKS      N/A     47  36  65 CALM      30.15R
TWIN BRIDGES     N/A     48  33  56 SE2       30.17R
$$

MTZ009-010-012-014-046-048-049-054-301300-
EAST SLOPES AND CENTRAL MONTANA

CITY           SKY/WX    TMP DP  RH WIND       PRES   REMARKS
CUT BANK       CLEAR     49  45  86 NW8       30.15R
GREAT FALLS    MOCLDY    57  44  62 W6        30.11R
MALMSTROM AFB  PTCLDY    57  45  64 SW6       30.11R
HELENA         PTCLDY    61  41  47 CALM      30.15R
CHOTEAU          N/A     55  46  71 W3        30.15S
$$

MTZ011-013-016-021-045-047-050-051-301300-
NORTH CENTRAL MONTANA

CITY           SKY/WX    TMP DP  RH WIND       PRES   REMARKS
HAVRE          MOCLDY    68  48  48 E18G28    30.07R
LEWISTOWN      CLEAR     65  47  52 S10       30.15R
N BAR RANCH      N/A     57  46  67 SW6       30.19S
CHINOOK          N/A     66  48  52 E14G20    30.09F
$$

MTZ017>020-022>027-061-062-301300-
NORTHEAST MONTANA

CITY           SKY/WX    TMP DP  RH WIND       PRES   REMARKS
GLASGOW        MOCLDY    60  46  59 E10       30.12F
JORDAN           N/A     58  47  66 SE3       30.11S
SIDNEY         CLEAR     52  45  77 CALM      30.20S
WOLF POINT     MOCLDY    55  45  68 E6        30.15F
PLENTYWOOD       N/A     57  45  62 E6        30.19S
POPLAR           N/A     55  45  67 NE5       30.16S
SCOBEY           N/A     47  38  71 CALM      30.16F
$$

MTZ028>42-056>058-301300-
SOUTHCENTRAL AND SOUTHEAST MONTANA

CITY           SKY/WX    TMP DP  RH WIND       PRES   REMARKS
BAKER          PTCLDY    59  50  72 SE14      30.23S
BILLINGS       PTCLDY    60  47  61 NW6       30.12S
LIVINGSTON     CLEAR     50  43  77 VRB3      30.19S
MILES CITY     PTCLDY    68  49  50 SE14      30.12S
FORSYTH          N/A     61  52  72 NE6       30.09S
LAUREL           N/A     58  46  64 CALM      30.10R
ROUNDUP          N/A     58  45  62 S5        30.03S
$$

REGIONAL REPORTS...DAKOTAS

CITY           SKY/WX    TMP DP  RH WIND       PRES   REMARKS
WILLISTON      CLEAR     49  42  77 CALM      30.21S
MINOT            N/A     48  45  89 N5        30.25R
DICKINSON      CLEAR     52  47  83 S10       30.23S
CROSBY           N/A     48  45  87 CALM      30.25S
WATFORD CITY     N/A     50  41  71 SE5       30.23S
BISMARCK       CLEAR     49  46  90 NE5       30.26S
GRAND FORKS      N/A     49  46  90 W5        30.24R
FARGO            N/A     50  47  89 W3        30.25R
BUFFALO SD       N/A     61  55  81 E6        30.19S
RAPID CITY     CLEAR     60  59  96 E6        30.25S
$$

REGIONAL REPORTS...WYOMING/IDAHO/WASHINGTON

CITY           SKY/WX    TMP DP  RH WIND       PRES   REMARKS
GILLETTE       CLEAR     61  56  83 S15       30.24F
SHERIDAN       PTCLDY    51  43  74 SW7       30.17S
BUFFALO WY     PTCLDY    60  42  51 SE9       30.26S
CODY           MOCLDY    64  37  36 SE12      30.23R
YELLOWSTONE LA   N/A     38  33  82 CALM      30.47S
IDAHO FALLS    PTCLDY    48  37  65 N8        30.19F
SALMON         CLOUDY   N/A N/A N/A MISG        N/A
BOISE          MOCLDY    70  33  25 CALM      29.97F
SPOKANE        PTCLDY    61  40  45 NE3       29.99R
$$

REGIONAL REPORTS...ALBERTA

CITY           SKY/WX    TMP DP  RH WIND       PRES   REMARKS
EDMONTON       PTCLDY    46  43  87 E7        30.14F
CALGARY        PTCLDY    52  48  87 SE5       30.12F
LETHBRIDGE     PTCLDY    52  50  93 S8        30.12F
MEDICINE HAT   PTCLDY    59  55  88 NE8       30.09F
WATERTON GATE    N/A     45  43  93 W3          N/A
CARDSTON         N/A     50  48  93 SW1         N/A
MILK RIVER       N/A     50  48  93 NW8         N/A
ONEFOUR          N/A     61  50  67 NE16        N/A
$$

REGIONAL REPORTS...SASKATCHEWAN

CITY           SKY/WX    TMP DP  RH WIND       PRES   REMARKS
SWIFT CURRENT  CLOUDY    50  46  87 E8        30.17F
REGINA         PTCLDY    55  45  67 E10       30.24R
SASKATOON      MOCLDY    46  45  93 NE7       30.27S
CYPRESS HILLS    N/A     57  45  62 E6          N/A
VAL MARIE        N/A     52  43  71 NE7         N/A
ROCKGLEN         N/A     52  43  71 S6          N/A
$$



USA.gov is the U.S. government's official web portal to all federal, state and local government web resources and services.